Litchfield, MN

5:07 PM CDT on August 29, 2016 (GMT -0500)
Litchfield Municipal

Weather History for KLJF - August, 2013

Change the Weather History Date:

Monday, August 26, 2013

  Actual Average Record
Temperature  
Mean Temperature 84 °F -  
Max Temperature 93 °F 79 °F 94 °F (1976)
Min Temperature 75 °F 58 °F 41 °F (1958)
Cooling Degree Days 19    
Growing Degree Days 34 (Base 50)    
Moisture  
Dew Point 76 °F    
Average Humidity 78    
Maximum Humidity 100    
Minimum Humidity 56    
Precipitation  
Precipitation 0.00 in - - ()
Sea Level Pressure  
Sea Level Pressure 29.92 in    
Wind  
Wind Speed 2 mph (South)    
Max Wind Speed 8 mph    
Max Gust Speed -    
Visibility 10 miles    
Events      
Averages and records for this station are not official NWS values.
T = Trace of Precipitation, MM = Missing Value Source: NWS Daily Summary

Daily Weather History Graph

Daily Weather History Graph

Search for Another Location

Airport or City:

Trip Planner

Search our weather history database for the weather conditions in past years. The results will help you decide how hot, cold, wet, or windy it might be!

Date:

Astronomy

Aug. 26, 2013 Rise Set
Actual Time 6:33 AM CDT 8:05 PM CDT
Civil Twilight 6:02 AM CDT 8:36 PM CDT
Nautical Twilight 5:24 AM CDT 9:13 PM CDT
Astronomical Twilight 4:44 AM CDT 9:53 PM CDT
Moon 10:57 PM CDT (8/26) 12:54 PM CDT (8/26)
Length of Visible Light 14h 34m
Length of Day
13h 32m
Waning Gibbous, 66% of the Moon is Illuminated
Aug 26
Waning Gibbous
Aug 28
Last Quarter
Sep 5
New
Sep 12
First Quarter
Sep 19
Full

Hourly Weather History & Observations

Time (CDT) Temp. Heat Index Dew Point Humidity Pressure Visibility Wind Dir Wind Speed Gust Speed Precip Events Conditions
12:12 AM 80.6 °F 87.1 °F 77.0 °F 89% 29.99 in 10.0 mi Calm Calm - N/A   Clear
12:33 AM 80.6 °F 86.2 °F 75.2 °F 84% 29.98 in 10.0 mi Calm Calm - N/A   Clear
12:52 AM 80.6 °F 86.2 °F 75.2 °F 84% 29.98 in 10.0 mi SSW 3.5 mph - N/A   Clear
1:13 AM 80.6 °F 86.2 °F 75.2 °F 84% 29.98 in 10.0 mi Calm Calm - N/A   Scattered Clouds
1:33 AM 78.8 °F - 75.2 °F 89% 29.98 in 10.0 mi Calm Calm - N/A   Scattered Clouds
1:52 AM 78.8 °F - 75.2 °F 89% 29.97 in 10.0 mi SSW 4.6 mph - N/A   Scattered Clouds
2:13 AM 78.8 °F - 75.2 °F 89% 29.97 in 10.0 mi SSW 4.6 mph - N/A   Clear
2:33 AM 78.8 °F - 75.2 °F 89% 29.97 in 10.0 mi SSW 4.6 mph - N/A   Clear
2:52 AM 78.8 °F - 75.2 °F 89% 29.97 in 10.0 mi SSW 4.6 mph - N/A   Clear
3:13 AM 77.0 °F - 75.2 °F 94% 29.97 in 10.0 mi SSW 3.5 mph - N/A   Clear
3:33 AM 78.8 °F - 75.2 °F 89% 29.97 in 10.0 mi SSW 3.5 mph - N/A   Clear
3:52 AM 78.8 °F - 75.2 °F 89% 29.97 in 10.0 mi South 3.5 mph - N/A   Clear
4:13 AM 77.0 °F - 75.2 °F 94% 29.97 in 10.0 mi SSW 3.5 mph - N/A   Clear
4:33 AM 77.0 °F - 75.2 °F 94% 29.97 in 10.0 mi SSW 3.5 mph - N/A   Clear
4:52 AM 77.0 °F - 75.2 °F 94% 29.97 in 10.0 mi Calm Calm - N/A   Clear
5:13 AM 77.0 °F - 75.2 °F 94% 29.97 in 10.0 mi Calm Calm - N/A   Clear
5:33 AM 77.0 °F - 75.2 °F 94% 29.97 in 10.0 mi Calm Calm - N/A   Clear
5:52 AM 77.0 °F - 73.4 °F 89% 29.97 in 10.0 mi Calm Calm - N/A   Clear
6:13 AM 75.2 °F - 73.4 °F 94% 29.97 in 10.0 mi Calm Calm - N/A   Clear
6:32 AM 75.2 °F - 73.4 °F 94% 29.97 in 10.0 mi Calm Calm - N/A   Clear
6:53 AM 75.2 °F - 73.4 °F 94% 29.98 in 7.0 mi Calm Calm - N/A   Clear
7:13 AM 77.0 °F - 73.4 °F 89% 29.98 in 7.0 mi SSW 3.5 mph - N/A   Clear
7:32 AM 77.0 °F - 73.4 °F 89% 29.98 in 10.0 mi SSW 3.5 mph - N/A   Clear
7:53 AM 78.8 °F - 75.2 °F 89% 29.98 in 10.0 mi SSW 3.5 mph - N/A   Clear
8:12 AM 78.8 °F - 75.2 °F 89% 29.98 in 10.0 mi Calm Calm - N/A   Clear
8:33 AM 80.6 °F 86.2 °F 75.2 °F 84% 29.98 in 10.0 mi Calm Calm - N/A   Clear
8:53 AM 82.4 °F 89.5 °F 75.2 °F 79% 29.98 in 10.0 mi South 3.5 mph - N/A   Clear
9:12 AM 82.4 °F 89.5 °F 75.2 °F 79% 29.96 in 10.0 mi Calm Calm - N/A   Clear
9:33 AM 84.2 °F 92.3 °F 75.2 °F 74% 29.96 in 10.0 mi SSW 3.5 mph - N/A   Clear
9:53 AM 84.2 °F 92.3 °F 75.2 °F 74% 29.96 in 10.0 mi South 4.6 mph - N/A   Clear
10:12 AM 84.2 °F 92.3 °F 75.2 °F 74% 29.96 in 10.0 mi Calm Calm - N/A   Clear
10:33 AM 87.8 °F 97.6 °F 75.2 °F 66% 29.96 in 10.0 mi SSW 3.5 mph - N/A   Clear
10:53 AM 87.8 °F 97.6 °F 75.2 °F 66% 29.96 in 10.0 mi South 4.6 mph - N/A   Clear
11:12 AM 87.8 °F 97.6 °F 75.2 °F 66% 29.96 in 10.0 mi SSE 4.6 mph - N/A   Clear
11:33 AM 87.8 °F 97.6 °F 75.2 °F 66% 29.96 in 10.0 mi SSE 5.8 mph - N/A   Clear
11:53 AM 87.8 °F 95.6 °F 73.4 °F 62% 29.96 in 10.0 mi Calm Calm - N/A   Clear
12:12 PM 89.6 °F 98.2 °F 73.4 °F 59% 29.96 in 10.0 mi South 4.6 mph - N/A   Clear
12:33 PM 89.6 °F 99.8 °F 75.2 °F 62% 29.95 in 10.0 mi Calm Calm - N/A   Clear
12:53 PM 89.6 °F 98.2 °F 73.4 °F 59% 29.94 in 10.0 mi SSE 5.8 mph - N/A   Clear
1:12 PM 91.4 °F 102.5 °F 75.2 °F 59% 29.94 in 10.0 mi South 4.6 mph - N/A   Clear
1:33 PM 89.6 °F 98.2 °F 73.4 °F 59% 29.92 in 10.0 mi SSE 6.9 mph - N/A   Clear
1:53 PM 89.6 °F 99.8 °F 75.2 °F 62% 29.92 in 10.0 mi SSE 4.6 mph - N/A   Clear
2:12 PM 91.4 °F 102.5 °F 75.2 °F 59% 29.92 in 7.0 mi SSE 8.1 mph - N/A   Clear
2:33 PM 91.4 °F 102.5 °F 75.2 °F 59% 29.91 in 7.0 mi South 5.8 mph - N/A   Clear
2:53 PM 91.4 °F 102.5 °F 75.2 °F 59% 29.90 in 10.0 mi SSE 8.1 mph - N/A   Clear
3:13 PM 93.2 °F 105.0 °F 75.2 °F 56% 29.90 in 7.0 mi SSE 5.8 mph - N/A   Clear
3:33 PM 93.2 °F 105.0 °F 75.2 °F 56% 29.89 in 10.0 mi SSE 4.6 mph - N/A   Clear
3:52 PM 93.2 °F 105.0 °F 75.2 °F 56% 29.89 in 10.0 mi South 6.9 mph - N/A   Clear
4:13 PM 93.2 °F 105.0 °F 75.2 °F 56% 29.88 in 10.0 mi South 4.6 mph - N/A   Clear
4:33 PM 91.4 °F 105.1 °F 77.0 °F 63% 29.88 in 10.0 mi SSE 4.6 mph - N/A   Clear
4:52 PM 93.2 °F 105.0 °F 75.2 °F 56% 29.88 in 10.0 mi South 6.9 mph - N/A   Clear
5:13 PM 93.2 °F 105.0 °F 75.2 °F 56% 29.87 in 10.0 mi SSE 3.5 mph - N/A   Clear
5:33 PM 91.4 °F 105.1 °F 77.0 °F 63% 29.86 in 10.0 mi SSE 4.6 mph - N/A   Clear
5:52 PM 91.4 °F 105.1 °F 77.0 °F 63% 29.85 in 10.0 mi South 4.6 mph - N/A   Clear
6:13 PM 89.6 °F 102.2 °F 77.0 °F 66% 29.84 in 10.0 mi South 6.9 mph - N/A   Clear
6:33 PM 91.4 °F 107.2 °F 78.8 °F 66% 29.83 in 10.0 mi South 4.6 mph - N/A   Clear
6:52 PM 89.6 °F 104.7 °F 78.8 °F 70% 29.83 in 10.0 mi South 4.6 mph - N/A   Clear
7:13 PM 89.6 °F 104.7 °F 78.8 °F 70% 29.83 in 10.0 mi South 4.6 mph - N/A   Clear
7:33 PM 87.8 °F 102.5 °F 78.8 °F 75% 29.83 in 10.0 mi SSE 3.5 mph - N/A   Clear
7:52 PM 87.8 °F 102.5 °F 78.8 °F 75% 29.84 in 10.0 mi SSW 3.5 mph - N/A   Clear
8:13 PM 87.8 °F 102.5 °F 78.8 °F 75% 29.84 in 10.0 mi SSE 3.5 mph - N/A   Clear
8:33 PM 86.0 °F 99.3 °F 78.8 °F 79% 29.84 in 10.0 mi South 3.5 mph - N/A   Clear
8:52 PM 84.2 °F 96.1 °F 78.8 °F 84% 29.85 in 10.0 mi South 3.5 mph - N/A   Clear
9:13 PM 84.2 °F 96.1 °F 78.8 °F 84% 29.85 in 10.0 mi Calm Calm - N/A   Clear
9:33 PM 84.2 °F 96.1 °F 78.8 °F 84% 29.87 in 10.0 mi WSW 3.5 mph - N/A   Clear
9:52 PM 82.4 °F 92.4 °F 78.8 °F 89% 29.88 in 10.0 mi Calm Calm - N/A   Clear
10:13 PM 82.4 °F 92.4 °F 78.8 °F 89% 29.88 in 10.0 mi Calm Calm - N/A   Clear
10:32 PM 80.6 °F 88.1 °F 78.8 °F 94% 29.87 in 10.0 mi Calm Calm - N/A   Clear
10:53 PM 80.6 °F 88.1 °F 78.8 °F 94% 29.86 in 10.0 mi Calm Calm - N/A   Clear
11:13 PM 80.6 °F 88.1 °F 78.8 °F 94% 29.86 in 10.0 mi Calm Calm - N/A   Clear
11:32 PM 78.8 °F - 78.8 °F 100% 29.86 in 10.0 mi Calm Calm - N/A   Clear
11:53 PM 78.8 °F - 77.0 °F 94% 29.86 in 10.0 mi Calm Calm - N/A   Clear